CW2313 Weather Reports


Display with metric or nautical units.
time (UTC)temp
F
wind
direction
speed
MPH
gust
MPH
rain 1hr
in
rain 24hr
in
rain mn
in
humidity
%
barometer
mb
20260503223016 65 339 0.0 0.0 0.00 0.00 0.00 46 1016.8
20260503221516 64 53 0.0 0.0 0.00 0.00 0.00 46 1016.9
20260503220057 65 71 0.0 0.0 0.00 0.00 0.00 45 1017.1
20260503214558 66 143 0.0 0.0 0.00 0.00 0.00 42 1017.2
20260503213039 65 221 0.0 0.0 0.00 0.00 0.00 36 1017.2
20260503211549 65 22 0.0 0.0 0.00 0.00 0.00 44 1017.4
20260503210021 66 360 0.0 0.0 0.00 0.00 0.00 42 1017.5
20260503204521 66 270 0.0 0.0 0.00 0.00 0.00 35 1017.5
20260503203002 65 92 0.0 0.0 0.00 0.00 0.00 40 1017.6
20260503201503 65 66 0.0 0.0 0.00 0.00 0.00 42 1017.6
20260503200055 65 75 0.0 0.0 0.00 0.00 0.00 45 1017.7
20260503194545 65 204 0.0 0.0 0.00 0.00 0.00 44 1017.9
20260503193033 65 205 0.0 0.0 0.00 0.00 0.00 43 1017.9
20260503191526 65 329 0.0 0.0 0.00 0.00 0.00 42 1018.1
20260503190008 64 17 0.0 0.0 0.00 0.00 0.00 41 1018.1
20260503184507 65 337 0.0 0.0 0.00 0.00 0.00 42 1018.2
20260503183048 65 172 0.0 0.0 0.00 0.00 0.00 40 1018.2
20260503181608 64 210 0.0 0.0 0.00 0.00 0.00 40 1018.3
20260503180044 64 358 0.0 0.0 0.00 0.00 0.00 38 1018.4
20260503174542 65 83 0.0 0.0 0.00 0.00 0.00 34 1018.4
20260503173014 65 160 0.0 0.0 0.00 0.00 0.00 35 1018.4
20260503171510 64 109 0.0 0.0 0.00 0.00 0.00 33 1018.5
20260503081548 50 350 0.0 0.0 0.00 0.00 0.00 54 1018.8
20260503071513 51 35 0.0 0.0 0.00 0.00 0.00 50 1018.8
20260503070112 51 35 0.0 0.0 0.00 0.00 0.00 48 1018.7
20260503054518 50 64 0.0 0.0 0.00 0.00 0.00 54 1018.7
20260503053020 50 58 0.0 1.0 0.00 0.00 0.00 55 1018.7
20260503051601 51 47 0.0 0.0 0.00 0.00 0.00 53 1018.7
20260503050100 51 54 0.0 0.0 0.00 0.00 0.00 52 1018.6
20260503044545 52 69 0.0 0.0 0.00 0.00 0.00 49 1018.6
20260503043042 53 357 0.0 0.0 0.00 0.00 0.00 50 1018.6
20260503041525 56 23 0.0 0.0 0.00 0.00 0.00 45 1018.4
20260503040024 57 355 0.0 0.0 0.00 0.00 0.00 41 1018.3
20260503034507 57 17 0.0 0.0 0.00 0.00 0.00 44 1018.2
20260503033011 57 5 0.0 0.0 0.00 0.00 0.00 43 1018.0
20260503031548 57 35 0.0 0.0 0.00 0.00 0.00 47 1017.9
20260503030112 58 29 0.0 0.0 0.00 0.00 0.00 50 1017.8
20260503024534 60 29 0.0 0.0 0.00 0.00 0.00 47 1017.7
20260503023033 61 29 0.0 0.0 0.00 0.00 0.00 42 1017.7
20260503021513 62 356 0.0 0.0 0.00 0.00 0.00 36 1017.7
20260503020012 63 349 0.0 0.0 0.00 0.00 0.00 35 1017.7
20260503014604 64 25 0.0 0.0 0.00 0.00 0.00 33 1017.7
20260503013055 64 70 0.0 0.0 0.00 0.00 0.00 33 1017.7
20260503011547 64 19 0.0 0.0 0.00 0.00 0.00 34 1017.7
20260503010036 64 8 0.0 0.0 0.00 0.00 0.00 34 1017.7
20260503004520 65 27 0.0 0.0 0.00 0.00 0.00 34 1017.8
20260503003018 65 46 0.0 0.0 0.00 0.00 0.00 36 1017.8
20260503001600 65 19 0.0 0.0 0.00 0.00 0.00 44 1017.9
20260503000100 64 41 0.0 0.0 0.00 0.00 0.00 47 1017.8
20260502234542 64 131 0.0 3.0 0.00 0.00 0.00 44 1017.9
20260502233042 64 60 0.0 1.0 0.00 0.00 0.00 52 1017.9
20260502231524 65 21 0.0 0.0 0.00 0.00 0.00 48 1017.9
20260502230024 66 7 0.0 0.0 0.00 0.00 0.00 46 1018.0
20260502224506 66 20 0.0 0.0 0.00 0.00 0.00 38 1018.2